Погода в Астане

Погода в Астане : погода сейчас, прогноз погоды и архив. Всё, что Вы хотите узнать о погоде в Астане!

Хотите узнать прогноз погоды Астана? Тогда Вам сюда: Погода Астана

Поиск расширенной информации на нашем сайте:

Другие новости

Новости СМИ2

Главная страница сайта

Новости сайта

03.07.2017

Напоминаем, что на нашем специализированном сайте Метеоцентр.Азия вы можете получить высокодетализированные автоматические прогнозы погоды по пунктам России, СНГ и мира в авиационном формате (включающие направление и скорость ветра, видимость, явления погоды, количество и форму облачности, нижнюю и верхнюю границу облачности).


Погода в Астане - сегодня

Время (UTC), дата Ветер
(°,м/с) 
Видим.   Явления Облачность Т
(°С)
Тd
(°С)
f(%) Тe
(°С)
Pmin
(гПа)
dP
(гПа)
Po
(мм)
O2
(г/м3)
Тmin Tmax R s Состояние
почвы
03 22.11.17 190 (Ю) 10 км    10/0 верхняя 
[Ci]
-4.8 -10.2 66 -4  1034.3  -0.1  742  305        равномерный
мокрый или
старый снег
100% 
06 22.11.17 170 (Ю) 10 км    10/0 верхняя 
[Ci]
-2.1 -8.8 60 -3  1033.6  -0.3  742  302  -6.6         
09 22.11.17 180 (Ю) 10 км    10/0 верхняя 
[Cs]
+0.3 -7.7 55 +1  1031.8  -1.3  741  299           
12 22.11.17 190 (Ю) н/о    10/0 средняя, верхняя 
[Ac trans|Ci]
-0.3 -6.7 62 1031.1  -0.8  740  299           
15 22.11.17 тихо ()   н/о    10/0 верхняя 
[Ci]
-1.3 -7.6 62 -1  1030.8  -0.4  740  300    +0.8       
18 22.11.17 180 (Ю) н/о    10/0 верхняя 
[Ci]
-3.1 -9.8 60 -4  1030.2  -0.9  739  302    +0.8       
21 22.11.17 090 (В) н/о    ясно 
-3.1 -9.1 63 -3  1029.1  -1  739  302           
00 23.11.17 тихо ()   н/о    ясно 
-3.4 -9.6 62 -3  1028.5  -0.7  738  302           
03 23.11.17 тихо ()   4000 м  дым  3/0 верхняя 
[Ci]
-2.9 -11.6 51 -3  1028.4  738  302        равномерный
мокрый или
старый снег
100% 
06 23.11.17 180 (Ю) 4000 м  дым  3/0 верхняя 
[Ci]
+1.8 -10.4 40 +3  1027.5  -0.1  738  296  -4.7         
09 23.11.17 тихо ()   4000 м  дым  3/0 верхняя 
[Ci]
+4.9 -7.9 39 +5  1026.2  -0.8  737  293           
12 23.11.17 тихо ()   н/о    ясно 
+1.2 -7.1 54 +1  1026.4  -0.3  737  296           
15 23.11.17 тихо ()   н/о  дым  ясно 
+1.1 -10.1 43 +1  1026.2  -0.3  737  297    +5.6       
18 23.11.17 110 (В) н/о    ясно 
-0.2 -12.8 38 1026.5  0.1  737  298    +5.6       
21 23.11.17 тихо ()   н/о    ясно 
-1 -12 43 -1  1026  -0.6  737  299           
00 24.11.17 тихо ()   н/о    ясно 
-2 -11.3 49 -2  1025.7  -0.4  736  300           
03 24.11.17 тихо ()   10 км    ясно 
-2.2 -11.2 50 -2  1025.6  -0.2  736  300        равномерный
мокрый или
старый снег
100% 
06 24.11.17 180 (Ю) 10 км    ясно 
+1.9 -10.3 40 +1  1024.6  -0.3  736  295  -2.9         
09 24.11.17 тихо ()   10 км    ясно 
+4.4 -8 40 +4  1023.1  -1  735  292           
12 24.11.17 тихо ()   н/о    ясно 
+1.2 -7.6 52 +1  1023.2  -0.4  735  296           
15 24.11.17 тихо ()   н/о    ясно 
+0.6 -8.1 52 +1  1022.4  -0.9  734  296    +5.3       
18 24.11.17 тихо ()   н/о    ясно 
-1.9 -9.5 56 -2  1022.1  -0.7  734  299    +5.3       
21 24.11.17 тихо ()   н/о    ясно 
-1.3 -10.6 49 -1  1020.9  -1  733  298           
00 25.11.17 170 (Ю) н/о    ясно 
-3.6 -10 61 -5  1020.5  -0.8  732  300           
03 25.11.17 190 (Ю) 10 км    3/0 верхняя 
[Ci fib]
-4.8 -10.4 65 -6  1020.7  732  301        мокрый или
старый снег
50-90% 
Время (UTC), дата Ветер
(°,м/с) 
Видим.   Явления Облачность Т
(°С)
Тd
(°С)
f(%) Тe
(°С)
Pmin
(гПа)
dP
(гПа)
Po
(мм)
O2
(г/м3)
Тmin Tmax R s Состояние
почвы

Для получения пояснительной информации подведите курсор к названию столбца.

ПОГОДА в Астане - архив

Всё, что Вы хотите узнать о погоде в Астане - удобно и подробно!

Выберите нужную дату (начиная с 1 января 2015* года) и нажмите кнопку "Найти".
Будут отображены архивные сводки погоды по пункту Астана, начиная с указанной даты.


Отображать данные в формате CSV (для использования в таблицах Excel)


Внимание! Наш архив погоды предназначен исключительно для личного некоммерческого использования в познавательных целях. Если Вам необходимы официальные справки о состоянии погоды (для производственных, юридических, коммерческих и т.п. целей), обращайтесь в органы Росгидромета.

*Примечание: данная дата относится к архиву по метеостанциям СССР (Россия, СНГ, Балтия).
Архив по метеостанциям Зарубежной Европы и Азии (кроме Китая) хранится 10 дней, по другим регионам земного шара (Китай, Африка, Америка, Австралия, Океания) - 1 день.

Астана - район местоположения метеостанции


Название, широта, долгота, высота метеостанции:
Астана (город) 51.1°ш. 71.4°д. 350 м над ур. моря [Казахстан]

Дополнительная информация

В oтличие oт бoльшинства пoгoдных сайтoв мы публикуем пoдрoбную метеoинфoрмацию в детальнoм прoфессиoнальнoм фoрмате.

Характеристики температуры и влажнoсти вoздуха измеряются на высoте 2 м в тени вдали oт зданий и деревьев.
Скoрoсть ветра измеряется на высoте 10 м (на урoвне рoста челoвека скoрoсть ветра ниже в 1.5-2 раза). Если метеoстанция нахoдится в гoрoде или в лесу, тo скoрoсть ветра занижена на 2-4 м/с пo сравнению с oткрытым местoм. Скoрoсть ветра над акватoриями крупных рек и oзёр, а также на вершинах хoлмoв на 2-5 м/с выше, чем в oбычных услoвиях.
Атмoсфернoе давление в разных тoчках местнoсти мoжет значительнo oтличаться oт давления на метеoстанции, в зависимoсти oт услoвий рельефа (при пoдъёме на 10 м давление пoнижается примернo на 1 мм рт.ст.).